Volver al catálogo

SATCOM 3 DEB *

LostHEO
NORAD 32992·DEBRIS·🇺🇸 United States

Lanzado Dec 7, 1979 desde Cape Canaveral Space Force Station

Loading…

Próximos Pases (próximas 24 horas)

TLE

ObsoletoSource: Space-Track

Época: Feb 25, 2025, 14:34 UTC

1 32992U 79101T   25056.60710858 -.00000094  00000-0  00000+0 0  9999
2 32992  13.1437 312.3523 4670485 354.0087 328.2287  1.78290476114244

Sigue SATCOM 3 DEB * en tiempo real con AllMySat

Download on the App Store